DW8909 Weather Reports


time (UTC)temp
C
wind
direction
speed
KPH
gust
KPH
rain 1hr
cm
rain 24hr
cm
rain mn
cm
humidity
%
barometer
mb
20260506194550 11 43 6.4 17.7 0.00 0.00 0.00 78 1011.5
20260506193048 11 60 6.4 16.1 0.00 0.00 0.00 78 1011.4
20260506191548 11 11 6.4 17.7 0.00 0.00 0.00 78 1011.3
20260506190049 11 324 4.8 14.5 0.00 0.00 0.00 79 1011.2
20260506184550 11 57 4.8 14.5 0.00 0.00 0.00 78 1011.1
20260506183042 11 30 4.8 17.7 0.00 0.00 0.00 78 1010.9
20260506181540 11 47 4.8 14.5 0.00 0.00 0.00 79 1010.8
20260506180038 12 326 6.4 20.9 0.00 0.00 0.00 79 1010.5
20260506174537 12 46 6.4 16.1 0.00 0.00 0.00 80 1010.4
20260506173052 12 12 6.4 19.3 0.00 0.00 0.00 79 1010.3
20260506171535 12 54 6.4 19.3 0.00 0.00 0.00 78 1010.3
20260506170039 12 48 6.4 22.5 0.00 0.00 0.00 78 1010.1
20260506164535 12 315 6.4 16.1 0.00 0.00 0.00 77 1010.1
20260506163037 12 49 8.0 19.3 0.00 0.00 0.00 77 1009.9
20260506161533 12 74 6.4 22.5 0.00 0.00 0.00 77 1010.0
20260506160033 12 355 4.8 20.9 0.00 0.00 0.00 77 1010.1
20260506154531 13 24 6.4 17.7 0.00 0.00 0.00 77 1010.0
20260506153028 13 73 8.0 19.3 0.00 0.00 0.00 76 1010.0
20260506151529 13 5 6.4 17.7 0.00 0.00 0.00 77 1010.0
20260506150027 13 5 8.0 20.9 0.00 0.00 0.00 78 1010.0
20260506144532 12 5 6.4 17.7 0.00 0.00 0.00 77 1010.0
20260506143026 13 57 6.4 20.9 0.00 0.00 0.00 77 1010.0
20260506141524 13 37 8.0 17.7 0.00 0.00 0.00 76 1010.0
20260506140025 13 43 6.4 19.3 0.00 0.00 0.00 74 1010.1
20260506134522 14 49 6.4 20.9 0.00 0.00 0.00 74 1010.2
20260506133022 14 46 8.0 19.3 0.00 0.00 0.00 74 1010.1
20260506131529 14 13 8.0 22.5 0.00 0.00 0.00 74 1010.0
20260506130023 14 360 6.4 20.9 0.00 0.00 0.00 72 1009.9
20260506124519 14 337 11.3 25.7 0.00 0.00 0.00 71 1009.8
20260506123018 14 52 8.0 24.1 0.00 0.00 0.00 72 1009.7
20260506121517 14 34 8.0 24.1 0.00 0.00 0.00 71 1009.6
20260506120019 14 44 8.0 20.9 0.00 0.00 0.00 71 1009.6
20260506114516 14 56 8.0 25.7 0.00 0.00 0.00 71 1009.6
20260506113010 13 38 3.2 22.5 0.00 0.00 0.00 73 1009.6
20260506111508 13 72 6.4 20.9 0.00 0.00 0.00 74 1009.5
20260506110010 13 34 6.4 16.1 0.00 0.00 0.00 74 1009.7
20260506104507 13 55 6.4 17.7 0.00 0.00 0.00 74 1009.7
20260506103009 13 49 6.4 17.7 0.00 0.00 0.00 74 1009.7
20260506101512 13 50 9.7 27.4 0.00 0.00 0.00 74 1009.4
20260506100004 13 9 8.0 20.9 0.00 0.00 0.00 74 1009.4
20260506094503 13 44 6.4 22.5 0.00 0.00 0.00 74 1009.4
20260506093058 13 14 6.4 20.9 0.00 0.00 0.00 76 1009.4
20260506091554 12 49 9.7 20.9 0.00 0.00 0.00 76 1009.4
20260506090049 12 30 8.0 20.9 0.00 0.00 0.00 78 1009.2
20260506084610 11 97 6.4 19.3 0.00 0.00 0.00 80 1009.2
20260506083041 11 15 9.7 22.5 0.00 0.00 0.00 80 1009.2
20260506081546 10 73 6.4 20.9 0.00 0.00 0.00 81 1009.1
20260506073042 10 328 8.0 25.7 0.00 0.00 0.00 80 1008.9
20260506071536 10 333 9.7 20.9 0.00 0.00 0.00 80 1008.9
20260506061527 10 175 9.7 24.1 0.00 0.00 0.00 79 1008.7
20260506044538 10 65 6.4 20.9 0.00 0.00 0.00 81 1008.6
20260506043012 10 38 9.7 19.3 0.00 0.00 0.00 81 1008.6
20260506041509 10 13 8.0 22.5 0.00 0.00 0.00 81 1008.6
20260506040007 10 33 11.3 22.5 0.00 0.00 0.00 81 1008.6
20260506034513 10 96 6.4 19.3 0.00 0.00 0.00 81 1008.8
20260506033007 10 26 6.4 19.3 0.00 0.00 0.00 81 1008.8
20260506031503 10 5 8.0 24.1 0.00 0.00 0.00 80 1008.8
20260506030100 10 295 8.0 19.3 0.00 0.00 0.00 80 1008.9
20260506024559 10 63 6.4 16.1 0.00 0.00 0.00 80 1009.0
20260506023111 10 71 6.4 16.1 0.00 0.00 0.00 79 1009.1
20260506021555 10 30 8.0 19.3 0.00 0.00 0.00 77 1009.1
20260506020054 10 13 8.0 20.9 0.00 0.00 0.00 77 1009.1
20260506014553 10 25 8.0 22.5 0.00 0.00 0.00 76 1009.2
20260506013050 10 26 8.0 19.3 0.00 0.00 0.00 77 1009.2
20260506011601 10 46 6.4 20.9 0.00 0.00 0.00 77 1009.2
20260506010054 10 350 6.4 19.3 0.00 0.00 0.00 77 1009.3
20260506004603 10 97 8.0 25.7 0.00 0.00 0.00 77 1009.4
20260506003056 10 26 4.8 20.9 0.00 0.00 0.00 77 1009.4
20260506001541 10 52 8.0 22.5 0.00 0.00 0.00 77 1009.6
20260506000040 10 36 4.8 20.9 0.00 0.00 0.00 77 1009.7
20260505234556 10 351 9.7 24.1 0.00 0.00 0.00 77 1009.8
20260505233037 10 34 9.7 24.1 0.00 0.00 0.00 76 1009.7
20260505231534 10 115 8.0 22.5 0.00 0.00 0.00 77 1009.8
20260505230038 10 39 9.7 17.7 0.00 0.00 0.00 77 1009.9
20260505224531 10 37 8.0 24.1 0.00 0.00 0.00 78 1010.0
20260505223025 10 33 9.7 25.7 0.00 0.00 0.00 77 1010.0
20260505221527 10 90 9.7 24.1 0.00 0.00 0.00 77 1010.0
20260505220029 10 42 8.0 25.7 0.00 0.00 0.00 77 1010.0
20260505214523 10 81 9.7 27.4 0.00 0.00 0.00 77 1010.1
20260505213017 10 35 11.3 22.5 0.00 0.00 0.00 79 1010.1
20260505211515 10 55 11.3 24.1 0.00 0.00 0.00 78 1010.1
20260505210012 11 50 9.7 25.7 0.00 0.00 0.00 80 1010.1
20260505204511 10 32 9.7 24.1 0.00 0.00 0.00 80 1010.2
20260505203009 10 355 9.7 27.4 0.00 0.00 0.00 80 1010.2
20260505201511 10 48 8.0 24.1 0.00 0.00 0.00 81 1010.1
20260505200007 11 5 11.3 25.7 0.00 0.00 0.00 82 1010.0